Location: Ailly
(50.0793°N, 1.9944°E)
Time: 17:57:41
(UTC+00:00)

CZ-4 R/B - Pass Details

Date: 15 January 2026
Orbit: 676 x 743 km, 98.7° (Epoch: 17 February)

Event Time Altitude Azimuth Distance (km) Brightness Sun altitude
Rises 05:52:19 0° 10° (N) 3,091 7.1 -17.5°
Reaches altitude 10° 05:54:37 10° 5° (N) 2,179 6.3 -17.1°
Maximum altitude 05:59:12 49° 292° (WNW) 921 4.0 -16.4°
Drops below altitude 10° 06:03:51 10° 218° (SW) 2,205 6.1 -15.7°
Sets 06:06:11 0° 213° (SSW) 3,131 7.0 -15.3°
